Regional Weather Roundup
Issued by NWS

Home | Current Version | Previous Version | Text Only | Print | Product List | Glossary On
Versions: 1 2 3 4 5 6 7 8 9 10 11 12 13 14 15 16 17 18 19 20 21 22 23 24 25 26 27 28 29 30 31 32 33 34 35 36 37 38 39 40 41 42 43 44 45 46 47 48 49 50
000
ASUS43 KDTX 282110
RWRMI
MICHIGAN HOURLY REGIONAL WEATHER ROUNDUP
NATIONAL WEATHER SERVICE DETROIT/PONTIAC MI
500 PM EDT TUE JUL 28 2015

NOTE: "FAIR" INDICATES FEW OR NO CLOUDS BELOW 12,000 FEET WITH NO
SIGNIFICANT WEATHER AND/OR OBSTRUCTION TO VISIBILITY.

MIZ047>049-052>055-059>063-066>070-074>076-081>083-282200-
SOUTHEAST LOWER MICHIGAN

CITY           SKY/WX    TMP DP  RH WIND       PRES   REMARKS
ADRIAN         PTSUNNY   87  61  41 E5        30.00F
ALMA           CLOUDY    87  60  39 SE5       30.00F
ANN ARBOR      PTSUNNY   88  59  37 SE8       30.00F
BAD AXE        CLOUDY    85  65  51 E7        30.02S
CARO           CLOUDY    87  63  43 CALM      30.00F
DETROIT CITY   MOSUNNY   88  63  43 SE10      30.00F
DETROIT        PTSUNNY   88  62  41 S9        30.00F
FLINT          CLOUDY    90  60  36 S6        30.00F
GROSSE ILE     MOSUNNY   84  72  65 S7        29.99F
HILLSDALE      PTSUNNY   87  63  44 SE5       30.02S
HOWELL         CLOUDY    88  56  33 S5        30.00F

CITY           SKY/WX    TMP DP  RH WIND       PRES   REMARKS
JACKSON        PTSUNNY   88  59  37 S8        30.00F
LAMBERTVILLE   MOSUNNY   87  60  41 E5        30.00F
LANSING        CLOUDY    87  58  37 S7        30.00F
LAPEER         FAIR      89  57  34 CALM      30.01F
MASON          PTSUNNY   84  59  43 S3        30.00F
MONROE         MOSUNNY   84  64  50 SE6       29.99F
MT. CLEMENS    PTSUNNY   87  63  45 SE7       29.99F
PONTIAC        PTSUNNY   90  59  35 SE5       30.00F
PORT HOPE        N/A     78  71  79 E6        30.01S
PORT HURON     PTSUNNY   86  64  48 CALM      30.00F
TRI CITIES     PTSUNNY   89  60  37 SW6       30.00F
MIDLAND        FAIR      89  60  38 SE7       29.99S
TROY           MOSUNNY   91  55  29 SE5       30.02S
SAGINAW HB     PTSUNNY   88  55  33 S5        29.99F
$$
MIZ043>046-050>051-056>058-064>065-071>073-077>080-282200-
SOUTHWEST LOWER MICHIGAN

CITY           SKY/WX    TMP DP  RH WIND       PRES   REMARKS
BATTLE CREEK   PTSUNNY   88  63  43 S6        30.00F
BENTON HARBOR  PTSUNNY   86  67  52 CALM      29.96F
BIG RAPIDS     PTSUNNY   88  53  30 S8G18     29.98F
COLDWATER      PTSUNNY   85  64  48 S3        29.99F
FREMONT        FAIR      89  50  26 S7        29.96F
HOLLAND        SUNNY     90  62  39 VRB7      29.97F HX  90
GRAND RAPIDS   PTSUNNY   88  61  40 E10       29.98F
IONIA          FAIR      87  64  47 SE5       29.99F
KALAMAZOO      MOSUNNY   89  62  40 S7        29.99F
MARSHALL       PTSUNNY   87  64  46 SE6       29.99F
MOUNT PLEASANT CLOUDY    87  58  37 S6        29.99F
MUSKEGON       PTSUNNY   87  60  40 S8        29.96F
SOUTH HAVEN    PTSUNNY   88  67  49 S8        29.96F HX  90
$$
MIZ016>042-282200-
NORTHERN LOWER MICHIGAN

CITY           SKY/WX    TMP DP  RH WIND       PRES   REMARKS
ALPENA         CLOUDY    89  63  41 E10       29.99F HX  90
BEAVER ISLAND  CLOUDY    83  60  46 W8        29.98S
BELLAIRE       CLOUDY    85  61  44 NW6       29.96F
CADILLAC       CLOUDY    88  60  38 SE10      30.00F
CHARLEVOIX     CLOUDY    82  65  56 NW6       30.01S
FRANKFORT      PTSUNNY   86  64  46 SW6       29.94F
GAYLORD        CLOUDY    90  55  30 S12       30.00F
GRAYLING       CLOUDY    88  60  39 S6        30.00F
HARBOR SPRINGS CLOUDY    82  64  55 SW5       29.97S
HOUGHTON LAKE  CLOUDY    87  62  43 S7        30.00F
MANISTEE       PTSUNNY   88  63  42 CALM      29.95F
OSCODA         CLOUDY    87  58  37 SE10      29.98F
PELLSTON       CLOUDY    87  62  43 N9        29.98F
ROGERS CITY    PTSUNNY   90  67  46 E9        29.97F HX  92
TRAVERSE CITY  CLOUDY    88  65  46 NE9       29.93F HX  90
$$
MIZ007>008-015-282200-
EASTERN UPPER MICHIGAN

CITY           SKY/WX    TMP DP  RH WIND       PRES   REMARKS
KINROSS        PTSUNNY   90  57  33 W6        29.97F
MACKINAC ISLAN PTSUNNY   85  59  40 CALM      29.98S
MUNISING         N/A     86  62  44 S8        29.91F
$$
MIZ004>006-011>014-085-282200-
CENTRAL UPPER MICHIGAN

CITY           SKY/WX    TMP DP  RH WIND       PRES   REMARKS
MANISTIQUE     CLOUDY    77  63  61 S7        29.96F
ESCANABA       PTSUNNY   79  66  65 S7        29.93S
MENOMINEE      CLOUDY    82  63  51 S13       29.91S
SAWYER-GWINN   SUNNY     82  59  44 S16       29.94S
$$
MIZ001>003-009>011-084-282200-
WESTERN UPPER MICHIGAN

CITY           SKY/WX    TMP DP  RH WIND       PRES   REMARKS
IRON MOUNTAIN  CLOUDY    83  63  50 S10       29.91F
HOUGHTON       CLOUDY    80  63  55 SE12      29.86F
COPPER HARBOR    N/A     79  62  56 SW12G22   29.84F
IRONWOOD       PTSUNNY   84  70  61 S10G20    29.80F
$$

ABBREVIATIONS USED IN REMARKS
   TC - TEMPERATURE IN CELSIUS
  WCI - WIND CHILL INDEX
   HX - HEAT INDEX
  VSB - VISIBILITY



USA.gov is the U.S. government's official web portal to all federal, state and local government web resources and services.